Flag for Venezuela Weather past 2 weeks in Caracas, Venezuela

Now
73 °F

Passing clouds.


Feels Like: 74 °F
Forecast: 61 / 70 °F
Wind: 1 mph from Southeast

Location: Caracas / Maiquetia Aerop. Intl. Simon Bolivar

Current Time: Dec 18, 2014 at 5:30:08 AM

Latest Report: Dec 18, 2014 at 4:30 AM


Visibility: N/A

Pressure: 29.95 "Hg

Humidity: 78%

Dew point: 66 °F

Location of CaracasLocation

Historic Weather in Caracas — Graph

°F

Caracas temperature yesterday

Maximum temperature yesterday: 84 °F (at 10:30 AM)
Minimum temperature yesterday: 73 °F (at 3:30 AM)
Average temperature yesterday: 78 °F

Past Weeks' High & Low Weather Summary

 TemperatureHumidityPressure
High88 °F (Dec 3, 2:30 PM)94% (Dec 3, 10:30 PM)30.04 "Hg (Dec 3, 10:30 PM)
Low73 °F (Dec 14, 4:30 AM)54% (Dec 16, 8:30 AM)29.80 "Hg (Dec 3, 3:30 PM)
Average80 °F76%29.93 "Hg
* Reported Dec 3 4:30 AM — Dec 18 4:30 AM, Caracas, Weather by CustomWeather, © 2014

Note: Actual official high and low records may vary slightly from our data, if they occured in-between our weather recording intervals... More about our weather records

Advertising

Caracas weather history for previous 24 hours

 ConditionsComfort  
Time TempWeatherWind HumidityBarometerVisibility
4:30 AM
Dec 18
73 °FPassing clouds.1 mph78%29.95 "HgN/A
3:30 AM73 °FPassing clouds.No wind78%29.98 "HgN/A
2:30 AM75 °FPassing clouds.1 mph74%29.98 "HgN/A
1:30 AM75 °FPassing clouds.No wind78%29.98 "HgN/A
12:30 AM75 °FPassing clouds.No wind83%30.01 "HgN/A
11:30 PM
Dec 17
77 °FPassing clouds.No wind83%30.01 "HgN/A
10:30 PM77 °FPassing clouds.1 mph83%30.01 "HgN/A
9:30 PM77 °FPassing clouds.1 mph83%29.98 "HgN/A
8:30 PM77 °FPassing clouds.2 mph83%29.95 "HgN/A
7:30 PM79 °FPassing clouds.2 mph89%29.95 "HgN/A
6:30 PM79 °FPassing clouds.2 mph89%29.92 "HgN/A
5:30 PM79 °FPassing clouds.3 mph89%29.92 "HgN/A
4:30 PM81 °FScattered clouds.3 mph84%29.92 "HgN/A
3:30 PM82 °FScattered clouds.5 mph79%29.92 "HgN/A
2:30 PM84 °FScattered clouds.6 mph74%29.95 "HgN/A
1:30 PM82 °FScattered clouds.5 mph84%29.95 "HgN/A
12:30 PM82 °FScattered clouds.3 mph79%29.98 "HgN/A
11:30 AM82 °FScattered clouds.6 mph79%30.01 "HgN/A
10:30 AM84 °FScattered clouds.5 mph74%30.04 "HgN/A
9:30 AM81 °FPassing clouds.3 mph70%30.04 "HgN/A
8:30 AM79 °FScattered clouds.3 mph79%30.01 "HgN/A
7:30 AM77 °FScattered clouds.No wind79%30.01 "HgN/A
6:30 AM73 °FPassing clouds.1 mph78%29.92 "HgN/A
5:30 AM73 °FPassing clouds.1 mph83%29.92 "HgN/A
Weather by CustomWeather, © 2014

See weather overviewHow to use our weather pages